Torna al catalogo

STARLINK-11690

AttivoComunicazioniVLEO
NORAD 64242·PAYLOAD·🇺🇸 United States

Lanciato Jun 3, 2025 da Cape Canaveral Space Force Station

Loading…

Prossimi Passaggi (prossime 24 ore)

TLE

AggiornatoSource: CelesTrak SupGP

Epoca: Sep 15, 2026, 02:34 UTC

1 64242C 25119K   26258.10743056  .00109170  00000+0  84666-3 0  2583
2 64242  43.0004 147.2754 0001673 272.8907 180.6065 15.70820460    13

Traccia STARLINK-11690 in tempo reale con AllMySat

Download on the App Store